CZ-4B DEB, 56088

Orbit data source: Space-Track

CZ-4B DEB, 56088 is space debris in SSO originally from a launch on Wed, 24 Oct 2018 UTC launched from the Taiyaun Space Center, China (TSC). Debris objects in space refer to the collection of defunct objects orbiting the Earth. Examples of debris include non-operational satellites, rocket bodies, and fragments generated from explosions, collisions, or faulty payload assembly.

Loading next visibility...
CZ-4B DEB details
Identifier
56088, 2018-081J
Orbit
SSO
Last TLE update1 day ago
Origin
Flag of CNCNSA (CN / PRC)
ManufacturerUnknown
MissionSpacecraft
Bus & MotorUnknown
MassUnknown
Launch date (UTC)
2018-10-24 (6 years ago)
Launch vehicleUnknown
Launch site
Taiyaun Space Center, China (TSC)
Object type
Payload
Rocket body
Debris
Shape & HBRUnknown
Radar Cross SectionSmall (<0.1 m²)

Expand to show TLE details & history

TLE from 1 day ago
0 CZ-4B DEB
1 56088U 18081J   24360.35783725  .00011951  00000-0  50284-2 0  9998
2 56088  98.7614 149.4146 0153911   0.8833 359.2587 14.19717137 88955
Epoch: 2024-12-25T08:35Z
Definitive object data (Epoch: 2024-12-25T08:35:17.138Z)
Latitude-0°
Longitude-73.75955°
Altitude718.326 km
Speed7.554 km/s
True Right ascension09h 57m 39s
True Declination0° 00' 00"
Sunlit
Object was in full shadow at TLE epoch
Visualization TLE readout
Latitude-32.22512°
Longitude-67.03479°
Altitude741.698 km
Speed7.533 km/s
Apparent Right ascension06h 47m 47s
Apparent Declination-67° 42' 57"
Sunlit
Object is in daylight
Visualization observer readout
Local Sidereal Time12:33:14
Azimuth207.559° SW
Elevation-35.12°
Doppler factor1
Orbital elements
Apogee altitude934.311 km
Perigee altitude712.629 km
Semi-major axis7,201.607 km
Eccentricity0.0153911
Inclination98.7614°
RAAN149.4146°
Arg. of periapsis0.8833°
True anomaly359.23543°
Mean anomaly359.2587°
Eccentric anomaly359.24711°
Mean motion3.5514 °/min
BSTAR0.0050284
Orbital period101.37 mins
Loading maneuver chart data...
Loading historical data...
Loading historical data...
Loading historical data...
Loading historical data...
Loading historical data...
Loading historical data...
Loading historical data...

CZ-4B DEB Visibility forecast

Observer location: undefined°, undefined

Span
Click to sort rows by Start time (UTC) header in descending order
Start Az.
Max El. time (UTC)
Max El. Az.
Max El.
End time (UTC)
End Az.
10 mins2024-12-26 22:22:36.026Z32.242° NE2024-12-26 22:27:36.026Z102.875° ESE32.218°2024-12-26 22:32:36.026Z165.069° S
8 mins2024-12-27 00:03:36.026Z345.732° N2024-12-27 00:07:36.026Z289.615° WNW26.976°2024-12-27 00:11:36.026Z238.966° WSW
7 mins2024-12-27 09:46:36.026Z142.31° SSE2024-12-27 09:49:36.026Z75.194° E39.531°2024-12-27 09:53:36.026Z358.094° N
4 mins2024-12-27 11:28:36.026Z246.101° WSW2024-12-27 11:30:36.026Z273.323° WNW14.542°2024-12-27 11:32:36.026Z298.6° NW
|